• In Österreich
  • Länderverzeichnis
  • Für 7 Tage
  • Wassertemperatur
  • Satellitenkarten
  • Wetterkarte
  • News
  • Widgets
  • user-avatar
    Anmelden

    Stündliche Wetter Puebla

    Heute, 23 Oktober, Dienstag

    Zeit Temperatur Niederschläge Wind Luftdruck Luftfeuchtigkeit
    00:00 +14°C° 0 mm 1 m/S 589 mmHg 90%
    01:00 +14°C° 0 mm 1 m/S 589 mmHg 91%
    02:00 +13°C° 0 mm 1 m/S 588 mmHg 92%
    03:00 +13°C° 0 mm 1 m/S 588 mmHg 92%
    04:00 +13°C° 0 mm 1 m/S 588 mmHg 92%
    05:00 +13°C° 0 mm 1 m/S 588 mmHg 92%
    06:00 +15°C° 0 mm 1 m/S 589 mmHg 85%
    07:00 +16°C° 0 mm 1 m/S 590 mmHg 79%
    08:00 +17°C° 0 mm 2 m/S 591 mmHg 72%
    09:00 +19°C° 0 mm 2 m/S 591 mmHg 65%
    10:00 +20°C° 0 mm 3 m/S 592 mmHg 57%
    11:00 +22°C° 0 mm 3 m/S 592 mmHg 50%
    12:00 +22°C° 0 mm 3 m/S 591 mmHg 49%
    13:00 +23°C° 0 mm 4 m/S 591 mmHg 49%
    14:00 +23°C° 0 mm 4 m/S 590 mmHg 48%
    15:00 +21°C° 0 mm 3 m/S 590 mmHg 56%
    16:00 +19°C° 0 mm 3 m/S 589 mmHg 64%
    17:00 +18°C° 0 mm 2 m/S 588 mmHg 72%
    18:00 +17°C° 0 mm 2 m/S 589 mmHg 76%
    19:00 +16°C° 0 mm 1 m/S 589 mmHg 79%
    20:00 +15°C° 0 mm 1 m/S 589 mmHg 83%
    21:00 +14°C° 0 mm 1 m/S 589 mmHg 83%
    22:00 +14°C° 0 mm 1 m/S 589 mmHg 83%
    23:00 +14°C° 0 mm 1 m/S 589 mmHg 84%

    Morgen, 24 Oktober, Mittwoch

    Zeit Temperatur Niederschläge Wind Luftdruck Luftfeuchtigkeit
    00:00 +14°C° 0 mm 1 m/S 588 mmHg 85%
    01:00 +14°C° 0 mm 1 m/S 588 mmHg 86%
    02:00 +13°C° 0 mm 1 m/S 588 mmHg 87%
    03:00 +13°C° 0 mm 1 m/S 588 mmHg 87%
    04:00 +13°C° 0 mm 1 m/S 588 mmHg 87%
    05:00 +13°C° 0 mm 1 m/S 588 mmHg 88%
    06:00 +15°C° 0 mm 1 m/S 588 mmHg 82%
    07:00 +16°C° 0 mm 1 m/S 589 mmHg 76%
    08:00 +19°C° 0 mm 1 m/S 590 mmHg 70%
    09:00 +19°C° 0 mm 2 m/S 590 mmHg 64%
    10:00 +21°C° 0 mm 2 m/S 591 mmHg 59%
    11:00 +22°C° 0 mm 3 m/S 591 mmHg 53%
    12:00 +22°C° 0 mm 3 m/S 591 mmHg 52%
    13:00 +24°C° 0 mm 3 m/S 590 mmHg 51%
    14:00 +24°C° 0 mm 3 m/S 589 mmHg 49%
    15:00 +21°C° 0 mm 3 m/S 589 mmHg 57%
    16:00 +20°C° 0 mm 2 m/S 588 mmHg 64%
    17:00 +18°C° 0 mm 2 m/S 588 mmHg 72%
    18:00 +18°C° 0 mm 1 m/S 588 mmHg 75%
    19:00 +16°C° 0 mm 1 m/S 588 mmHg 78%
    20:00 +15°C° 0 mm 1 m/S 588 mmHg 82%
    21:00 +15°C° 0 mm 1 m/S 588 mmHg 82%
    22:00 +15°C° 0 mm 1 m/S 588 mmHg 82%
    23:00 +15°C° 0 mm 1 m/S 588 mmHg 82%

    übermorgen, 25 Oktober, Donnerstag

    Zeit Temperatur Niederschläge Wind Luftdruck Luftfeuchtigkeit
    00:00 +13°C° 0 mm 0 m/S 588 mmHg 83%
    01:00 +13°C° 0 mm 0 m/S 587 mmHg 83%
    02:00 +13°C° 0 mm 0 m/S 587 mmHg 84%
    03:00 +13°C° 0 mm 0 m/S 587 mmHg 85%
    04:00 +13°C° 0 mm 1 m/S 587 mmHg 86%
    05:00 +13°C° 0 mm 1 m/S 586 mmHg 87%
    06:00 +14°C° 0 mm 0 m/S 588 mmHg 80%
    07:00 +16°C° 0 mm 0 m/S 589 mmHg 74%
    08:00 +18°C° 0 mm 0 m/S 590 mmHg 67%
    09:00 +21°C° 0 mm 1 m/S 590 mmHg 63%
    10:00 +22°C° 0 mm 1 m/S 590 mmHg 58%
    11:00 +24°C° 0 mm 2 m/S 590 mmHg 54%
    12:00 +24°C° 0.2 mm 2 m/S 590 mmHg 55%
    13:00 +23°C° 0.2 mm 2 m/S 589 mmHg 57%
    14:00 +22°C° 0.2 mm 3 m/S 588 mmHg 58%
    15:00 +21°C° 0.8 mm 2 m/S 588 mmHg 65%
    16:00 +20°C° 0.8 mm 2 m/S 588 mmHg 73%
    17:00 +18°C° 0.8 mm 2 m/S 587 mmHg 80%
    18:00 +19°C° 0.9 mm 1 m/S 588 mmHg 83%
    19:00 +18°C° 0.9 mm 1 m/S 588 mmHg 85%
    20:00 +16°C° 0.9 mm 1 m/S 588 mmHg 88%
    21:00 +16°C° 0.6 mm 1 m/S 588 mmHg 88%
    22:00 +16°C° 0.6 mm 1 m/S 588 mmHg 89%
    23:00 +15°C° 0.6 mm 1 m/S 588 mmHg 89%

    26 Oktober, Freitag

    Zeit Temperatur Niederschläge Wind Luftdruck Luftfeuchtigkeit
    00:00 +15°C° 0.4 mm 1 m/S 588 mmHg 90%
    01:00 +15°C° 0.4 mm 1 m/S 587 mmHg 91%
    02:00 +14°C° 0.4 mm 0 m/S 587 mmHg 92%
    03:00 +14°C° 0 mm 0 m/S 587 mmHg 92%
    04:00 +13°C° 0 mm 0 m/S 587 mmHg 92%
    05:00 +13°C° 0 mm 0 m/S 587 mmHg 92%
    06:00 +15°C° 0 mm 0 m/S 588 mmHg 86%
    07:00 +18°C° 0 mm 1 m/S 589 mmHg 80%
    08:00 +19°C° 0 mm 1 m/S 590 mmHg 75%
    09:00 +21°C° 0.1 mm 1 m/S 590 mmHg 69%
    10:00 +22°C° 0.1 mm 1 m/S 590 mmHg 64%
    11:00 +23°C° 0.1 mm 2 m/S 590 mmHg 59%
    12:00 +23°C° 0.9 mm 2 m/S 589 mmHg 60%
    13:00 +23°C° 0.9 mm 2 m/S 589 mmHg 60%
    14:00 +22°C° 0.9 mm 3 m/S 588 mmHg 61%
    15:00 +21°C° 1.7 mm 2 m/S 588 mmHg 68%
    16:00 +19°C° 1.7 mm 2 m/S 588 mmHg 75%
    17:00 +19°C° 1.7 mm 1 m/S 587 mmHg 82%
    18:00 +18°C° 1.2 mm 1 m/S 588 mmHg 83%
    19:00 +18°C° 1.2 mm 1 m/S 588 mmHg 85%
    20:00 +16°C° 1.2 mm 1 m/S 588 mmHg 86%
    21:00 +16°C° 0.6 mm 1 m/S 588 mmHg 87%
    22:00 +16°C° 0.6 mm 1 m/S 588 mmHg 88%
    23:00 +15°C° 0.6 mm 1 m/S 588 mmHg 89%

    27 Oktober, Samstag

    Zeit Temperatur Niederschläge Wind Luftdruck Luftfeuchtigkeit
    00:00 +15°C° 0.4 mm 1 m/S 588 mmHg 89%
    01:00 +15°C° 0.4 mm 1 m/S 588 mmHg 89%
    02:00 +15°C° 0.4 mm 1 m/S 587 mmHg 89%
    03:00 +15°C° 0.2 mm 1 m/S 588 mmHg 89%
    04:00 +15°C° 0.2 mm 1 m/S 588 mmHg 90%
    05:00 +15°C° 0.2 mm 1 m/S 588 mmHg 90%
    06:00 +16°C° 0 mm 1 m/S 589 mmHg 85%
    07:00 +17°C° 0 mm 2 m/S 590 mmHg 80%
    08:00 +18°C° 0 mm 2 m/S 591 mmHg 75%
    09:00 +19°C° 0.2 mm 2 m/S 591 mmHg 71%
    10:00 +20°C° 0.2 mm 2 m/S 591 mmHg 67%
    11:00 +21°C° 0.2 mm 3 m/S 591 mmHg 63%
    12:00 +21°C° 0.4 mm 3 m/S 590 mmHg 64%
    13:00 +21°C° 0.4 mm 3 m/S 590 mmHg 64%
    14:00 +21°C° 0.4 mm 4 m/S 590 mmHg 65%
    15:00 +19°C° 0.2 mm 3 m/S 589 mmHg 69%
    16:00 +18°C° 0.2 mm 3 m/S 589 mmHg 73%
    17:00 +17°C° 0.2 mm 3 m/S 589 mmHg 77%
    18:00 +16°C° 0 mm 3 m/S 589 mmHg 79%
    19:00 +16°C° 0 mm 3 m/S 589 mmHg 81%
    20:00 +14°C° 0 mm 3 m/S 590 mmHg 83%
    21:00 +14°C° 0 mm 3 m/S 589 mmHg 83%
    22:00 +13°C° 0 mm 3 m/S 589 mmHg 84%
    23:00 +14°C° 0 mm 2 m/S 589 mmHg 84%

    28 Oktober, Sonntag

    Zeit Temperatur Niederschläge Wind Luftdruck Luftfeuchtigkeit
    00:00 +14°C° 0 mm 2 m/S 589 mmHg 84%
    01:00 +14°C° 0 mm 2 m/S 589 mmHg 84%
    02:00 +13°C° 0 mm 2 m/S 588 mmHg 84%
    03:00 +13°C° 0 mm 2 m/S 588 mmHg 85%
    04:00 +13°C° 0 mm 2 m/S 588 mmHg 85%
    05:00 +13°C° 0 mm 2 m/S 589 mmHg 86%
    06:00 +14°C° 0 mm 2 m/S 590 mmHg 80%
    07:00 +16°C° 0 mm 2 m/S 591 mmHg 75%
    08:00 +17°C° 0 mm 2 m/S 592 mmHg 70%
    09:00 +18°C° 0 mm 2 m/S 592 mmHg 64%
    10:00 +20°C° 0 mm 2 m/S 592 mmHg 58%
    11:00 +21°C° 0 mm 2 m/S 592 mmHg 52%
    12:00 +21°C° 0.1 mm 2 m/S 592 mmHg 53%
    13:00 +21°C° 0.1 mm 2 m/S 591 mmHg 53%
    14:00 +23°C° 0.1 mm 2 m/S 591 mmHg 54%
    15:00 +20°C° 0.2 mm 2 m/S 591 mmHg 60%
    16:00 +19°C° 0.2 mm 2 m/S 590 mmHg 66%
    17:00 +18°C° 0.2 mm 2 m/S 590 mmHg 72%
    18:00 +17°C° 0.1 mm 2 m/S 590 mmHg 75%
    19:00 +16°C° 0.1 mm 2 m/S 590 mmHg 79%
    20:00 +15°C° 0.1 mm 1 m/S 591 mmHg 82%
    21:00 +15°C° 0 mm 1 m/S 590 mmHg 83%
    22:00 +15°C° 0 mm 1 m/S 590 mmHg 84%
    23:00 +14°C° 0 mm 1 m/S 590 mmHg 86%

    29 Oktober, Montag

    Zeit Temperatur Niederschläge Wind Luftdruck Luftfeuchtigkeit
    00:00 +14°C° 0 mm 2 m/S 590 mmHg 86%
    01:00 +14°C° 0 mm 2 m/S 589 mmHg 86%
    02:00 +13°C° 0 mm 2 m/S 589 mmHg 87%
    03:00 +13°C° 0 mm 2 m/S 589 mmHg 87%
    04:00 +13°C° 0 mm 2 m/S 589 mmHg 87%
    05:00 +13°C° 0 mm 2 m/S 589 mmHg 88%
    06:00 +14°C° 0 mm 2 m/S 590 mmHg 81%
    07:00 +16°C° 0 mm 2 m/S 591 mmHg 74%
    08:00 +17°C° 0 mm 2 m/S 592 mmHg 67%
    09:00 +19°C° 0 mm 3 m/S 592 mmHg 61%
    10:00 +20°C° 0 mm 3 m/S 593 mmHg 55%
    11:00 +21°C° 0 mm 3 m/S 593 mmHg 49%
    12:00 +21°C° 0 mm 3 m/S 592 mmHg 50%
    13:00 +21°C° 0 mm 3 m/S 592 mmHg 52%
    14:00 +20°C° 0 mm 3 m/S 591 mmHg 53%
    15:00 +19°C° 0.1 mm 3 m/S 591 mmHg 58%
    16:00 +18°C° 0.1 mm 3 m/S 590 mmHg 63%
    17:00 +16°C° 0.1 mm 3 m/S 590 mmHg 68%
    18:00 +14°C° 0 mm 3 m/S 590 mmHg 72%
    19:00 +13°C° 0 mm 3 m/S 590 mmHg 76%
    20:00 +12°C° 0 mm 3 m/S 590 mmHg 80%
    21:00 +11°C° 0 mm 3 m/S 590 mmHg 81%
    22:00 +11°C° 0 mm 3 m/S 590 mmHg 82%
    23:00 +10°C° 0 mm 3 m/S 589 mmHg 83%
    Mehr zeigen